FENGYUN 2H DEB, 43645

Orbit data source: Space-Track

FENGYUN 2H DEB, 43645 is space debris in GEO originally from a launch on Tue, 05 Jun 2018 UTC launched from the Xichang Space Center, China (XSC). Debris objects in space refer to the collection of defunct objects orbiting the Earth. Examples of debris include non-operational satellites, rocket bodies, and fragments generated from explosions, collisions, or faulty payload assembly.

Not visible in the next 10 days
Identifier
43645, 2018-050D
Orbit
GEO
Country
Flag of CNCN / PRC
Related business
Manufacturer
SISE
Mission
Spacecraft
Bus & Motor
Unknown
Mass
Unknown
Launch date (UTC)
2018-06-05 (8 years ago)
Launch vehicle
Unknown
Launch site
Xichang Space Center, China (XSC)
Object type
Payload
Rocket body
Debris
Shape & HBR
Cyl, 0.3 m
Radar Cross Section
0.137 m²

Expand to show TLE details & history
Last TLE update: 20 hours ago

TLE from 20 hours ago
0 FENGYUN 2H DEB
1 43645U 18050D   25354.82000830  .00000120  00000-0  00000+0 0  9998
2 43645   4.4413  78.5130 0062800 250.0611 108.9418  1.00261493 27135
Epoch: 2025-12-20T19:40Z
TLE epoch observation values (Epoch: 2025-12-20T19:40:48.717Z)
Latitude
Longitude
53.34299°
Altitude
35,877.359 km
Speed
3.068 km/s
True Right ascension
05h 12m 44s
True Declination
0° 00' 00"
Sunlit
Object was in daylight at epoch
Visualization orbit readout
Latitude
Unknown
Longitude
Unknown
Altitude
Unknown
Speed
Unknown
Apparent Right ascension
Unknown
Apparent Declination
Unknown
Sunlit
N/A
Visualization observer readout
Local Sidereal Time
14:17:43
Azimuth
Unknown
Elevation
Unknown
Doppler factor
Unknown
Orbital elements
Apogee altitude
36,055.361 km
Perigee altitude
35,525.722 km
Semi-major axis
42,168.678 km
Eccentricity
0.00628
Inclination
4.4413°
RAAN
78.513°
Arg. of periapsis
250.0611°
True anomaly
109.62072°
Mean anomaly
108.9418°
Eccentric anomaly
109.28143°
Mean motion
0.25064 °/min
Orbital period
1,436.3 mins
BSTAR
0
Loading maneuver chart data...
Computing Atmospheric mass density...
Loading historical data...
Loading historical data...
Loading historical data...
Loading historical data...
Loading historical data...
Loading historical data...
Loading historical data...
Other satellites on launch #50 in the year 2018 (2018-06-05 UTC)

Documentation

Showing up to 5 results
|